TimeCDT,TemperatureF,Dew PointF,Humidity,Sea Level PressureIn,VisibilityMPH,Wind Direction,Wind SpeedMPH,Gust SpeedMPH,PrecipitationIn,Events,Conditions,WindDirDegrees,DateUTC
12:15 AM,39.6,34.7,83,29.98,7.0,ENE,9.2,-,N/A,,Clear,60,2012-11-02 05:15:00
12:35 AM,39.2,32.7,78,29.99,10.0,ENE,8.1,-,N/A,,Clear,60,2012-11-02 05:35:00
12:55 AM,39.2,32.0,75,29.99,10.0,NE,9.2,-,N/A,,Clear,50,2012-11-02 05:55:00
1:15 AM,38.7,31.6,76,29.99,10.0,ENE,6.9,-,N/A,,Clear,60,2012-11-02 06:15:00
1:35 AM,37.8,31.1,77,30.00,10.0,ENE,5.8,-,N/A,,Clear,60,2012-11-02 06:35:00
1:55 AM,37.2,30.7,77,30.00,10.0,ENE,8.1,-,N/A,,Clear,60,2012-11-02 06:55:00
2:15 AM,36.9,30.6,78,29.99,10.0,ENE,9.2,-,N/A,,Clear,60,2012-11-02 07:15:00
2:35 AM,37.4,30.6,76,29.99,10.0,ENE,10.4,-,N/A,,Clear,60,2012-11-02 07:35:00
2:55 AM,38.3,30.0,72,29.98,10.0,ENE,12.7,-,N/A,,Clear,70,2012-11-02 07:55:00
3:15 AM,37.8,29.7,73,29.97,10.0,ENE,11.5,-,N/A,,Clear,70,2012-11-02 08:15:00
3:35 AM,37.6,29.5,73,29.97,10.0,East,9.2,-,N/A,,Clear,80,2012-11-02 08:35:00
3:55 AM,37.9,29.7,72,29.97,10.0,East,8.1,-,N/A,,Clear,80,2012-11-02 08:55:00
4:15 AM,37.9,29.7,72,29.96,10.0,East,11.5,-,N/A,,Clear,80,2012-11-02 09:15:00
4:35 AM,37.9,29.7,72,29.96,10.0,ENE,11.5,-,N/A,,Clear,70,2012-11-02 09:35:00
4:55 AM,37.8,29.7,73,29.96,10.0,East,9.2,-,N/A,,Clear,80,2012-11-02 09:55:00
5:15 AM,37.8,29.7,73,29.96,10.0,East,10.4,-,N/A,,Clear,80,2012-11-02 10:15:00
5:35 AM,37.6,29.3,72,29.96,10.0,East,10.4,-,N/A,,Clear,80,2012-11-02 10:35:00
5:55 AM,37.8,29.7,73,29.97,10.0,East,9.2,-,N/A,,Clear,90,2012-11-02 10:55:00
6:15 AM,37.8,29.7,73,29.97,10.0,East,8.1,-,N/A,,Clear,90,2012-11-02 11:15:00
6:35 AM,37.6,29.7,73,29.96,10.0,ESE,8.1,-,N/A,,Clear,110,2012-11-02 11:35:00
6:55 AM,38.3,29.8,72,29.96,10.0,East,11.5,-,N/A,,Clear,100,2012-11-02 11:55:00
7:15 AM,38.5,29.8,71,29.97,10.0,East,10.4,-,N/A,,Clear,100,2012-11-02 12:15:00
7:35 AM,37.9,29.7,72,29.97,10.0,East,11.5,-,N/A,,Clear,100,2012-11-02 12:35:00
7:55 AM,37.6,29.7,73,29.97,10.0,East,9.2,-,N/A,,Clear,100,2012-11-02 12:55:00
8:15 AM,37.4,29.5,73,29.97,10.0,ESE,10.4,-,N/A,,Clear,110,2012-11-02 13:15:00
8:35 AM,38.3,29.8,72,29.97,10.0,East,10.4,16.1,N/A,,Clear,100,2012-11-02 13:35:00
8:55 AM,39.6,30.7,71,29.96,10.0,ESE,13.8,18.4,N/A,,Clear,110,2012-11-02 13:55:00
9:15 AM,40.6,30.0,66,29.98,10.0,ESE,11.5,18.4,N/A,,Clear,110,2012-11-02 14:15:00
9:35 AM,41.2,30.4,65,29.98,10.0,ESE,10.4,17.3,N/A,,Clear,110,2012-11-02 14:35:00
9:55 AM,41.7,30.0,63,29.98,10.0,ESE,13.8,21.9,N/A,,Clear,110,2012-11-02 14:55:00
10:15 AM,44.6,31.3,60,29.99,10.0,ESE,12.7,-,N/A,,Clear,120,2012-11-02 15:15:00
10:35 AM,45.5,30.6,56,29.99,10.0,ESE,13.8,18.4,N/A,,Clear,110,2012-11-02 15:35:00
10:55 AM,47.1,31.1,54,29.98,10.0,East,12.7,-,N/A,,Clear,90,2012-11-02 15:55:00
11:15 AM,46.4,31.1,55,29.98,10.0,East,11.5,-,N/A,,Clear,90,2012-11-02 16:15:00
11:35 AM,46.8,31.1,55,29.98,10.0,East,12.7,-,N/A,,Clear,100,2012-11-02 16:35:00
11:55 AM,47.7,31.3,53,29.99,10.0,ESE,11.5,-,N/A,,Clear,110,2012-11-02 16:55:00
12:15 PM,48.0,31.1,52,29.98,10.0,East,10.4,-,N/A,,Clear,100,2012-11-02 17:15:00
12:35 PM,48.2,30.6,51,29.98,10.0,East,10.4,-,N/A,,Clear,100,2012-11-02 17:35:00
12:55 PM,48.6,30.2,49,29.98,10.0,ESE,10.4,-,N/A,,Clear,110,2012-11-02 17:55:00
1:15 PM,49.8,30.7,48,29.96,10.0,East,11.5,-,N/A,,Clear,100,2012-11-02 18:15:00
1:35 PM,50.2,30.9,48,29.95,10.0,East,9.2,-,N/A,,Clear,80,2012-11-02 18:35:00
1:55 PM,50.2,30.2,46,29.94,10.0,East,9.2,-,N/A,,Clear,90,2012-11-02 18:55:00
2:15 PM,51.6,30.6,45,29.94,10.0,ENE,10.4,-,N/A,,Clear,70,2012-11-02 19:15:00
2:35 PM,51.1,29.3,43,29.94,10.0,ENE,9.2,-,N/A,,Clear,60,2012-11-02 19:35:00
2:55 PM,51.3,30.0,44,29.94,10.0,NE,8.1,-,N/A,,Clear,50,2012-11-02 19:55:00
3:15 PM,51.8,29.8,43,29.94,10.0,NE,10.4,-,N/A,,Clear,50,2012-11-02 20:15:00
3:35 PM,51.8,30.0,43,29.95,10.0,ENE,9.2,-,N/A,,Clear,70,2012-11-02 20:35:00
3:55 PM,52.7,30.4,42,29.95,10.0,NE,9.2,-,N/A,,Clear,50,2012-11-02 20:55:00
4:15 PM,51.8,30.4,44,29.95,10.0,NNE,10.4,-,N/A,,Clear,30,2012-11-02 21:15:00
4:35 PM,51.4,30.6,45,29.96,10.0,NE,9.2,-,N/A,,Clear,40,2012-11-02 21:35:00
4:55 PM,50.9,30.7,46,29.97,10.0,NNE,9.2,-,N/A,,Clear,30,2012-11-02 21:55:00
5:15 PM,50.7,30.4,46,29.97,10.0,NNE,5.8,-,N/A,,Clear,30,2012-11-02 22:15:00
5:35 PM,50.4,30.7,47,29.97,10.0,NNE,8.1,-,N/A,,Clear,20,2012-11-02 22:35:00
5:55 PM,49.8,31.1,49,29.98,10.0,NNE,9.2,-,N/A,,Clear,20,2012-11-02 22:55:00
6:15 PM,47.8,31.8,54,29.98,10.0,NE,6.9,-,N/A,,Clear,40,2012-11-02 23:15:00
6:35 PM,47.1,32.0,56,29.99,10.0,NE,5.8,-,N/A,,Clear,40,2012-11-02 23:35:00
6:55 PM,46.8,31.8,56,30.00,10.0,North,6.9,-,N/A,,Clear,10,2012-11-02 23:55:00
7:15 PM,46.0,32.0,58,30.01,10.0,North,6.9,-,N/A,,Clear,10,2012-11-03 00:15:00
7:35 PM,45.9,32.0,58,30.03,10.0,NNE,6.9,-,N/A,,Clear,20,2012-11-03 00:35:00
7:55 PM,45.5,32.0,59,30.03,10.0,North,6.9,-,N/A,,Clear,360,2012-11-03 00:55:00
8:15 PM,44.4,32.0,62,30.03,10.0,North,6.9,-,N/A,,Clear,10,2012-11-03 01:15:00
8:35 PM,43.2,31.8,64,30.04,10.0,North,5.8,-,N/A,,Clear,10,2012-11-03 01:35:00
8:55 PM,43.2,31.6,64,30.03,10.0,NNE,6.9,-,N/A,,Clear,30,2012-11-03 01:55:00
9:15 PM,42.3,31.6,66,30.04,10.0,NNE,6.9,-,N/A,,Clear,30,2012-11-03 02:15:00
9:35 PM,41.9,31.5,66,30.04,10.0,NNE,8.1,-,N/A,,Clear,30,2012-11-03 02:35:00
9:55 PM,41.9,31.1,66,30.05,10.0,NNE,5.8,-,N/A,,Clear,20,2012-11-03 02:55:00
10:15 PM,40.5,31.1,69,30.06,10.0,North,6.9,-,N/A,,Clear,10,2012-11-03 03:15:00
10:35 PM,41.0,31.1,68,30.06,10.0,North,5.8,-,N/A,,Clear,360,2012-11-03 03:35:00
10:55 PM,39.9,30.9,70,30.07,10.0,North,8.1,-,N/A,,Clear,360,2012-11-03 03:55:00
11:15 PM,39.2,31.1,73,30.07,10.0,North,8.1,-,N/A,,Clear,10,2012-11-03 04:15:00
11:35 PM,39.2,30.9,72,30.08,10.0,North,6.9,-,N/A,,Clear,10,2012-11-03 04:35:00
11:55 PM,38.7,30.7,73,30.08,10.0,North,8.1,-,N/A,,Clear,360,2012-11-03 04:55:00